This demonstration page uses our WeatherBlox Daily Observations layout. Learn more.

Left ArrowRight Arrow

Hourly Observations for October 9, 2018

Temp ( °F °C ) Dew Point ( °F °C ) Humidity (%) Winds ( mph kmh ) Pressure ( in mb ) Visibility ( mi km ) Precip ( " mm )
12:51 am 00:51 Cloudy 54 12.2 44 6.7 69 69 NNW 6 9 29.76 1008 10 16 0.00 0.00
1:51 am 01:51 Mostly Clear 50 10 45 7.2 83 83 S 5 7 29.75 1008 10 16 0.00 0.00
2:51 am 02:51 Mostly Cloudy 49 9.4 45 7.2 86 86 E 5 7 29.74 1007 10 16 0.00 0.00
3:51 am 03:51 Mostly Clear 48 8.9 44 6.7 86 86 E 6 9 29.76 1008 10 16 0.00 0.00
4:51 am 04:51 Mostly Cloudy 48 8.9 45 7.2 89 89 ESE 5 7 29.78 1009 10 16 0.00 0.00
5:51 am 05:51 Cloudy 49 9.4 45 7.2 86 86 ESE 5 7 29.80 1009 10 16 0.00 0.00
6:51 am 06:51 Cloudy 51 10.6 45 7.2 80 80 ESE 5 7 29.80 1009 10 16 0.00 0.00
7:51 am 07:51 Cloudy 52 11.1 45 7.2 77 77 S 6 9 29.83 1010 10 16 0.00 0.00
8:51 am 08:51 Cloudy 56 13.3 45 7.2 67 67 Calm 29.84 1011 10 16 0.00 0.00
9:51 am 09:51 Cloudy 59 15 46 7.8 62 62 Calm 29.84 1011 10 16 0.00 0.00
10:51 am 10:51 Sunny 66 18.9 44 6.7 45 45 NW 9 15 29.81 1010 10 16 0.00 0.00
11:51 am 11:51 Sunny 68 20 40 4.4 36 36 WNW 14 22 29.79 1009 10 16 0.00 0.00
12:51 pm 12:51 Partly Cloudy 70 21.1 39 3.9 32 32 W 15 24 29.76 1008 10 16 0.00 0.00
1:51 pm 13:51 Partly Cloudy 72 22.2 37 2.8 28 28 WNW 12 19 29.73 1007 10 16 0.00 0.00
2:51 pm 14:51 Sunny 72 22.2 33 0.6 24 24 WNW 17 28 29.72 1007 10 16 0.00 0.00
3:51 pm 15:51 Mostly Sunny 72 22.2 31 -0.6 22 22 W 14 22 29.73 1007 10 16 0.00 0.00
4:51 pm 16:51 Sunny 71 21.7 29 -1.7 21 21 W 15 24 29.72 1007 10 16 0.00 0.00
5:51 pm 17:51 Sunny 67 19.4 30 -1.1 25 25 W 10 17 29.74 1007 10 16 0.00 0.00
6:51 pm 18:51 Clear 61 16.1 33 0.6 35 35 NW 6 9 29.76 1008 10 16 0.00 0.00
7:51 pm 19:51 Clear 59 15 35 1.7 41 41 NW 10 17 29.78 1009 10 16 0.00 0.00
8:51 pm 20:51 Clear 59 15 35 1.7 41 41 NNW 6 9 29.79 1009 10 16 0.00 0.00
9:51 pm 21:51 Clear 55 12.8 36 2.2 49 49 WNW 5 7 29.80 1009 10 16 0.00 0.00
10:51 pm 22:51 Clear 51 10.6 37 2.8 59 59 S 3 6 29.82 1010 10 16 0.00 0.00
11:51 pm 23:51 Clear 49 9.4 36 2.2 61 61 ESE 5 7 29.83 1010 10 16 0.00 0.00

Powered by AerisWeather